Stations météo

réclame
Mon MeteoGroup
Semmerzake, Belgique (6428): Température de l'air & dewpoint: 14.07.2018 22:00:00 - 20.07.2018 22:00:00 (CEST)Semmerzake, Belgique (6428): Vitesse du vent & gusts: 14.07.2018 22:00:00 - 20.07.2018 22:00:00 (CEST)Semmerzake, Belgique (6428): Direction du vent: 14.07.2018 22:00:00 - 20.07.2018 22:00:00 (CEST)Semmerzake, Belgique (6428): reduced air pressure: 14.07.2018 22:00:00 - 20.07.2018 22:00:00 (CEST)Semmerzake, Belgique (6428): visibility: 14.07.2018 22:00:00 - 20.07.2018 22:00:00 (CEST)
Date & Time tt [°C] td [°C] ff [km/h] ff [knt] fx [km/h] fx [knt] dd ppp [hPa] vv [km]
20.07.2018 22:00:00 17,7 13,3 4 2 11 6 N 1013,2 20
20.07.2018 21:00:00 19,1 11,5 4 2 14 8 N 1012,7 20
20.07.2018 20:00:00 19,2 10,8 7 4 - - N 1012,8 20
20.07.2018 19:00:00 19,5 16,4 7 4 11 6 N 1013,3 12
20.07.2018 18:00:00 20,6 15,7 4 2 11 6 N 1013,8 13
20.07.2018 17:00:00 20,1 16,8 7 4 - - WSW 1014,5 9
20.07.2018 16:00:00 23,0 9,1 4 2 11 6 N 1014,7 20
20.07.2018 15:00:00 23,2 8,7 4 2 11 6 N 1014,7 20
20.07.2018 14:00:00 23,8 8,0 4 2 - - N 1015,0 20
20.07.2018 13:00:00 23,7 9,6 4 2 14 8 N 1015,0 20
20.07.2018 12:00:00 23,7 10,6 7 4 18 10 N 1015,1 20
20.07.2018 11:00:00 23,2 12,7 4 2 - - N 1015,2 20
20.07.2018 10:00:00 20,9 13,0 4 2 7 4 N 1015,6 20
20.07.2018 09:00:00 18,5 14,2 4 2 7 4 N 1015,7 12
20.07.2018 08:00:00 16,4 13,6 4 2 - - N 1016,0 9
20.07.2018 07:00:00 14,1 12,2 4 2 7 4 N 1015,8 6
20.07.2018 06:00:00 12,8 11,4 4 2 4 2 N 1016,0 5
20.07.2018 05:00:00 12,8 11,3 4 2 - - N 1016,5 9
20.07.2018 04:00:00 13,8 11,5 7 4 7 4 NE 1016,6 16
20.07.2018 03:00:00 13,0 10,8 7 4 7 4 NE 1017,0 20
20.07.2018 02:00:00 14,4 11,0 4 2 - - N 1017,2 20
20.07.2018 01:00:00 15,3 11,3 4 2 11 6 N 1017,7 20
20.07.2018 00:00:00 16,8 10,9 7 4 11 6 NE 1017,6 20
19.07.2018 23:00:00 17,7 9,7 4 2 - - N 1017,7 20
19.07.2018 22:00:00 19,3 9,2 7 4 18 10 N 1017,7 20
19.07.2018 21:00:00 21,8 8,8 11 6 22 12 N 1017,7 20
19.07.2018 20:00:00 23,5 9,7 11 6 - - N 1017,5 20
19.07.2018 19:00:00 24,7 10,4 11 6 22 12 N 1017,2 20
19.07.2018 18:00:00 25,3 10,4 11 6 22 12 NNE 1017,7 20
19.07.2018 17:00:00 24,6 10,7 7 4 - - N 1018,2 20
19.07.2018 16:00:00 24,9 10,2 11 6 22 12 NNE 1018,5 20
19.07.2018 15:00:00 24,1 10,0 7 4 14 8 N 1018,7 20
19.07.2018 14:00:00 24,7 9,6 4 2 - - N 1018,8 20
19.07.2018 13:00:00 24,7 11,1 4 2 14 8 N 1019,2 20
19.07.2018 12:00:00 23,2 10,9 4 2 14 8 N 1019,2 20
19.07.2018 11:00:00 22,2 11,2 4 2 - - N 1019,3 20
19.07.2018 10:00:00 - - - - - - - - -
19.07.2018 09:00:00 18,6 14,7 4 2 4 2 N 1019,7 7
19.07.2018 08:00:00 16,1 13,5 4 2 - - N 1019,7 8
19.07.2018 07:00:00 12,6 11,8 4 2 4 2 N 1019,7 5
19.07.2018 06:00:00 12,1 11,5 4 2 4 2 N 1019,5 5
19.07.2018 05:00:00 12,3 11,5 4 2 - - N 1019,6 8
19.07.2018 04:00:00 13,1 11,9 4 2 7 4 N 1019,7 14
19.07.2018 03:00:00 13,4 11,5 4 2 7 4 N 1019,7 18
19.07.2018 02:00:00 13,6 11,4 4 2 - - N 1019,8 20
19.07.2018 01:00:00 15,1 11,5 4 2 7 4 N 1019,6 20
19.07.2018 00:00:00 16,8 12,1 4 2 7 4 - 1019,6 20
18.07.2018 23:00:00 17,9 11,5 4 2 - - N 1019,3 20
18.07.2018 22:00:00 19,2 11,7 7 4 14 8 N 1019,2 20
18.07.2018 21:00:00 21,6 11,5 7 4 22 12 N 1019,0 20
18.07.2018 20:00:00 22,7 11,7 14 8 - - N 1018,7 20
18.07.2018 19:00:00 23,1 12,3 14 8 22 12 NNE 1018,5 20
18.07.2018 18:00:00 23,5 11,9 7 4 14 8 N 1018,7 20
18.07.2018 17:00:00 23,5 10,6 7 4 - - NNW 1018,7 20
18.07.2018 16:00:00 23,2 10,3 7 4 18 10 NW 1018,8 20
18.07.2018 15:00:00 23,6 10,8 7 4 18 10 W 1019,1 20
18.07.2018 14:00:00 22,9 10,8 7 4 - - NW 1019,1 20
18.07.2018 13:00:00 22,6 10,7 7 4 18 10 NW 1019,3 20
18.07.2018 12:00:00 22,1 11,9 4 2 18 10 - 1019,5 20
18.07.2018 11:00:00 20,4 12,6 7 4 - - WSW 1019,7 20
18.07.2018 10:00:00 19,0 12,5 7 4 14 8 WSW 1019,7 20
18.07.2018 09:00:00 17,0 12,1 7 4 11 6 SW 1019,7 20
18.07.2018 08:00:00 14,8 10,9 7 4 - - SSW 1019,3 20
18.07.2018 07:00:00 14,0 10,3 4 2 7 4 N 1019,2 20
18.07.2018 06:00:00 13,0 9,9 4 2 7 4 N 1019,0 20
18.07.2018 05:00:00 13,0 9,9 4 2 - - N 1019,0 20
18.07.2018 04:00:00 13,3 10,1 4 2 7 4 N 1019,0 20
18.07.2018 03:00:00 14,1 10,2 4 2 7 4 N 1019,2 20
18.07.2018 02:00:00 13,8 10,0 4 2 - - N 1019,2 20
18.07.2018 01:00:00 15,4 9,8 4 2 4 2 N 1019,0 20
18.07.2018 00:00:00 16,5 10,2 4 2 14 8 N 1018,8 20
17.07.2018 23:00:00 18,2 10,7 4 2 - - N 1018,7 20
17.07.2018 22:00:00 19,3 10,9 4 2 14 8 N 1018,1 20
17.07.2018 21:00:00 21,2 11,3 7 4 18 10 NW 1017,7 20
17.07.2018 20:00:00 22,7 10,6 4 2 - - N 1017,2 20
17.07.2018 19:00:00 23,1 9,5 7 4 25 14 WNW 1017,0 20
17.07.2018 18:00:00 22,6 9,1 14 8 25 14 NNW 1017,1 20
17.07.2018 17:00:00 23,5 9,1 11 6 - - WNW 1017,1 20
17.07.2018 16:00:00 24,2 10,5 14 8 29 16 W 1017,0 19
17.07.2018 15:00:00 23,9 9,1 18 10 36 19 W 1016,7 20
17.07.2018 14:00:00 24,8 9,5 14 8 - - WSW 1016,7 19
17.07.2018 13:00:00 24,1 10,4 14 8 32 18 WSW 1016,6 20
17.07.2018 12:00:00 23,5 11,4 14 8 29 16 WSW 1016,2 20
17.07.2018 11:00:00 22,3 12,9 14 8 - - WSW 1016,0 20
17.07.2018 10:00:00 20,4 15,3 7 4 18 10 WSW 1016,1 19
17.07.2018 09:00:00 18,4 15,1 11 6 22 12 WSW 1015,7 9
17.07.2018 08:00:00 17,5 14,9 11 6 - - WSW 1015,2 9
17.07.2018 07:00:00 15,6 13,1 7 4 14 8 SW 1014,8 10
17.07.2018 06:00:00 15,1 11,7 7 4 14 8 SSW 1014,5 17
17.07.2018 05:00:00 15,7 10,9 7 4 - - SSW 1014,3 20
17.07.2018 04:00:00 16,7 11,3 7 4 14 8 SSW 1014,5 20
17.07.2018 03:00:00 17,4 13,1 7 4 7 4 SW 1014,5 20
17.07.2018 02:00:00 18,2 13,3 4 2 - - N 1014,6 20
17.07.2018 01:00:00 18,6 13,7 4 2 7 4 N 1014,5 20
17.07.2018 00:00:00 19,0 13,7 4 2 11 6 N 1014,3 20
16.07.2018 23:00:00 18,7 13,4 4 2 - - N 1013,7 20
16.07.2018 22:00:00 21,1 13,6 4 2 14 8 N 1013,5 20
16.07.2018 21:00:00 21,5 14,3 7 4 14 8 ENE 1013,2 20
16.07.2018 20:00:00 22,2 14,4 7 4 - - ENE 1013,1 20
16.07.2018 19:00:00 22,8 14,0 7 4 14 8 ESE 1012,8 20
16.07.2018 18:00:00 23,2 15,3 4 2 32 18 N 1013,0 20
16.07.2018 17:00:00 28,2 10,6 7 4 - - WSW 1012,0 20
16.07.2018 16:00:00 30,3 10,1 4 2 14 8 N 1012,1 20
16.07.2018 15:00:00 29,4 9,5 4 2 14 8 N 1012,6 20
16.07.2018 14:00:00 29,0 9,6 4 2 - - N 1013,1 20
16.07.2018 13:00:00 27,5 9,4 7 4 14 8 ESE 1013,5 20
16.07.2018 12:00:00 27,6 8,9 7 4 14 8 ESE 1013,6 20
16.07.2018 11:00:00 26,5 11,5 4 2 - - N 1013,7 20
16.07.2018 10:00:00 25,1 12,2 4 2 7 4 N 1013,7 20
16.07.2018 09:00:00 23,7 11,5 4 2 4 2 N 1013,8 20
16.07.2018 08:00:00 21,4 13,8 4 2 - - N 1014,1 20
16.07.2018 07:00:00 18,2 14,3 4 2 4 2 N 1014,0 16
16.07.2018 06:00:00 15,6 13,3 4 2 4 2 N 1014,0 15
16.07.2018 05:00:00 16,3 13,0 4 2 - - N 1013,8 17
16.07.2018 04:00:00 16,9 12,9 4 2 7 4 N 1014,1 20
16.07.2018 03:00:00 17,9 13,1 4 2 7 4 N 1014,3 20
16.07.2018 02:00:00 19,6 13,1 7 4 - - N 1014,7 20
16.07.2018 01:00:00 19,6 12,6 7 4 11 6 NE 1015,1 20
16.07.2018 00:00:00 20,9 12,4 7 4 14 8 NE 1015,2 20
15.07.2018 23:00:00 22,1 10,7 7 4 - - ENE 1015,1 20
15.07.2018 22:00:00 23,0 10,5 7 4 18 10 NE 1015,1 20
15.07.2018 21:00:00 25,7 9,8 11 6 22 12 N 1014,7 20
15.07.2018 20:00:00 27,2 8,5 11 6 - - N 1014,3 20
15.07.2018 19:00:00 28,1 9,8 14 8 25 14 N 1014,2 20
15.07.2018 18:00:00 27,7 9,2 14 8 25 14 N 1014,5 20
15.07.2018 17:00:00 28,6 7,3 7 4 - - E 1015,0 20
15.07.2018 16:00:00 28,6 7,8 4 2 22 12 N 1015,3 20
15.07.2018 15:00:00 28,1 8,2 7 4 22 12 E 1015,7 19
15.07.2018 14:00:00 27,4 9,2 4 2 - - N 1016,2 20
15.07.2018 13:00:00 26,3 10,1 7 4 18 10 E 1016,8 20
15.07.2018 12:00:00 25,8 10,1 7 4 14 8 ENE 1017,2 20
15.07.2018 11:00:00 25,1 12,2 4 2 - - N 1017,5 20
15.07.2018 10:00:00 23,6 13,3 4 2 11 6 N 1017,6 20
15.07.2018 09:00:00 20,7 13,2 4 2 11 6 N 1017,7 20
15.07.2018 08:00:00 17,7 12,9 4 2 - - N 1017,7 20
15.07.2018 07:00:00 15,3 12,7 4 2 7 4 N 1017,5 20
15.07.2018 06:00:00 14,2 12,2 4 2 7 4 N 1017,6 20
15.07.2018 05:00:00 14,1 12,2 7 4 - - NE 1017,8 20
15.07.2018 04:00:00 15,5 12,4 4 2 7 4 N 1018,1 20
15.07.2018 03:00:00 15,4 12,9 4 2 11 6 N 1018,5 20
15.07.2018 02:00:00 17,1 13,4 4 2 - - N 1018,7 20
15.07.2018 01:00:00 17,6 14,1 7 4 11 6 ENE 1018,8 20
15.07.2018 00:00:00 17,2 14,3 4 2 11 6 N 1018,8 20
14.07.2018 23:00:00 19,7 14,5 7 4 - - N 1018,7 20
14.07.2018 22:00:00 21,6 13,8 7 4 18 10 NNE 1018,5 20

tt = Température de l'air
td = dewpoint
ff = Vitesse du vent
fx = gusts
dd = Direction du vent
ppp = reduced air pressure
vv = visibility

stations d'obs. à proximité